Terminal Aerodrome Forecast
Issued by NWS

Home | Current Version | Previous Version | Graphics & Text | Print | Product List | Glossary On
Versions: 1 2 3 4 5 6 7 8 9 10 11 12 13 14 15
521
FTUS43 KABR 301734
TAFPIR
TAF
KPIR 301734Z 3018/0118 04019G29KT P6SM VCSH OVC050
     FM010200 02009KT P6SM OVC080
     FM010800 35010KT P6SM SCT080=

USA.gov is the U.S. government's official web portal to all federal, state and local government web resources and services.